Regional Weather Roundup
Issued by NWS Sioux Falls, SD

Home | Current Version | Previous Version | Text Only | Print | Product List | Glossary On
Versions: 1 2 3 4 5 6 7 8 9 10 11 12 13 14 15 16 17 18 19 20 21 22 23 24 25 26 27 28 29 30 31 32 33 34 35 36 37 38 39 40 41 42 43 44 45 46 47 48 49 50
000
ASUS43 KFSD 021102
RWRFSD

WEATHER ROUNDUP FOR SE SOUTH DAKOTA/SW MINNESOTA/NW IOWA
NATIONAL WEATHER SERVICE SIOUX FALLS SD
600 AM CDT THU JUL 02 2015

NOTE: "FAIR" INDICATES FEW OR NO CLOUDS BELOW 12,000 FEET WITH NO
SIGNIFICANT WEATHER AND OR OBSTRUCTIONS TO VISIBILITY.


SDZ038>040-050-052>070-021200-
SOUTHEAST SOUTH DAKOTA

CITY           SKY/WX    TMP DP  RH WIND       PRES   REMARKS
BROOKINGS      CLOUDY    57  52  82 SE7       30.02S
CHAMBERLAIN    NOT AVBL
HURON          LGT RAIN  61  57  87 SE9       29.95S
MADISON        PTSUNNY   57  57 100 SE8       30.00F
MITCHELL       CLOUDY    61  58  90 SE8       29.96F
SIOUX FALLS    CLOUDY    59  53  80 SE6       30.00S
WINNER         CLOUDY    69  65  86 S6        29.93R FOG
YANKTON        CLOUDY    59  54  82 E7        29.98R
$$

MNZ071-072-080-081-089-090-097-098-021200-
SOUTHWEST MINNESOTA

CITY           SKY/WX    TMP DP  RH WIND       PRES   REMARKS
FAIRMONT       FAIR      48  43  81 CALM      30.03R
JACKSON        CLOUDY    50  48  93 E5        30.03S
LUVERNE        CLOUDY    57  55  94 CALM      30.02S
MARSHALL       PTCLDY    52  45  76 CALM      30.01S
MONTEVIDEO     PTCLDY    54  54 100 S5        30.02F
PIPESTONE      CLOUDY    57  54  88 SE3       30.01S
REDWOOD FALLS  CLEAR     51  50  96 SE3       30.04R
TRACY          PTCLDY    55  51  86 CALM      30.03R
WINDOM         PTCLDY    50  48  93 CALM      30.02F
WORTHINGTON    CLOUDY    55  52  88 E3        30.02S
$$

IAZ001>003-012>014-020>022-031-032-NEZ013-014-SDZ071-021200-
NORTHWEST IOWA

CITY           SKY/WX    TMP DP  RH WIND       PRES   REMARKS
ESTHERVILLE    CLOUDY    52  50  93 E6        30.02S
SIOUX CITY     CLOUDY    60  54  80 E7        29.97S
SPENCER        CLOUDY    55  51  86 E5        30.01S
$$

ABBREVIATIONS USED IN REMARKS
   TC - TEMPERATURE IN CELSIUS
  WCI - WIND CHILL INDEX
   HX - HEAT INDEX
  VSB - VISIBILITY



USA.gov is the U.S. government's official web portal to all federal, state and local government web resources and services.